Location: Les Chemineaux
(47.3024°N, 1.5104°E)
Time: 19:33:13
(UTC+00:00)

SL-8 Rocket - Pass Details

Date: 19 May 2025
Orbit: 955 x 990 km, 82.9° (Epoch: 22 June)

Event Time Altitude Azimuth Distance (km) Brightness Sun altitude
Rises 21:16:28 0° 351° (N) 3,654 8.2 -14.3°
Reaches altitude 10° 21:18:58 10° 351° (N) 2,701 7.3 -14.6°
Maximum altitude 21:25:10 88° 83° (E) 964 3.9 -15.2°
Enters shadow 21:29:41 19° 172° (S) 2,083 5.2 -15.7°
